Location: La Pernelle
(49.6188°N, 1.2999°W)
Time: 14:51:30
(UTC+00:00)

Cosmos 1953 - Pass Details

Date: 12 June 2021
Orbit: 538 x 557 km, 82.5° (Epoch: 30 July)

Event Time Altitude Azimuth Distance (km) Brightness Sun altitude
Rises 23:02:18 0° 337° (NNW) 2,752 7.7 -15.8°
Reaches altitude 10° 23:04:55 10° 320° (NW) 1,852 6.0 -15.9°
Maximum altitude 23:07:53 20° 273° (W) 1,337 4.5 -16.1°
Enters shadow 23:10:43 11° 228° (SW) 1,810 4.7 -16.2°
